Location: Ripley
(48.3812°N, 115.4473°W)
Time: 08:29:49
(UTC+00:00)

SO-50 - Visible Passes

Search period start: 04 July 2022 00:00
Search period end: 14 July 2022 00:00
Orbit: 586 x 697 km, 64.6° (Epoch: 03 July)

Date Brightness Start Highest point End Pass type
(mag) Time Alt. Az. Time Alt. Az. Time Alt. Az.
04 Jul ? 06:24:43 22° ESE 06:25:11 22° ESE 06:28:53 10° ENE visible
04 Jul ? 08:02:15 23° WSW 08:05:12 63° NW 08:10:04 10° NE visible
04 Jul ? 09:43:10 10° WNW 09:46:35 19° NNW 09:50:04 10° NNE visible
05 Jul ? 06:47:52 35° SSE 06:49:21 47° ESE 06:54:00 10° NE visible
05 Jul ? 08:25:33 10° WSW 08:29:56 35° NW 08:34:26 10° NNE visible
05 Jul ? 10:09:11 10° NW 10:11:48 14° NNW 10:14:26 10° NNE visible
06 Jul ? 05:33:23 15° ESE 05:33:59 16° ESE 05:36:48 10° ENE visible
06 Jul ? 07:10:55 25° SW 07:13:44 86° NW 07:18:39 10° NE visible
06 Jul ? 08:51:06 10° W 08:54:52 22° NNW 08:58:44 10° NNE visible
06 Jul ? 10:35:09 10° NNW 10:37:07 12° N 10:39:06 10° NNE visible
07 Jul ? 05:56:16 25° SSE 05:58:03 33° ESE 06:02:22 10° NE visible
07 Jul ? 07:33:48 10° WSW 07:38:21 45° NW 07:43:05 10° NNE visible
07 Jul ? 09:17:00 10° WNW 09:20:01 16° NNW 09:23:03 10° NNE visible
07 Jul ? 11:00:30 10° NNW 11:02:28 12° N 11:04:27 10° NNE visible
08 Jul ? 04:42:10 10° ESE 04:42:52 10° ESE 04:43:33 10° E visible
08 Jul ? 06:18:55 18° SSW 06:22:20 69° SE 06:27:11 10° NE visible
08 Jul ? 07:59:07 10° W 08:03:13 27° NW 08:07:25 10° NNE visible
08 Jul ? 09:43:03 10° NW 09:45:17 13° N 09:47:32 10° NNE visible
09 Jul ? 05:03:45 13° SSE 05:06:49 23° ESE 05:10:35 10° ENE visible
09 Jul ? 06:42:09 10° SW 06:46:50 61° NW 06:51:42 10° NE visible
09 Jul ? 08:24:52 10° WNW 08:28:16 19° NNW 08:31:43 10° NNE visible
09 Jul ? 10:08:45 10° NNW 10:10:38 12° N 10:12:30 10° NNE visible
10 Jul ? 05:26:28 10° SSW 05:30:59 48° ESE 05:35:40 10° NE visible
10 Jul ? 07:07:14 10° WSW 07:11:35 34° NW 07:16:04 10° NNE visible
10 Jul ? 08:50:53 10° NW 08:53:28 14° NNW 08:56:04 10° NNE visible
10 Jul ? 10:33:43 10° NNW 10:35:59 13° N 10:38:15 10° NE visible
11 Jul ? 05:50:38 10° SW 05:55:23 83° NW 06:00:18 10° NE visible
11 Jul ? 07:32:47 10° W 07:36:32 22° NNW 07:40:22 10° NNE visible
11 Jul ? 09:16:50 10° NNW 09:18:47 12° N 09:20:45 10° NNE visible
11 Jul ? 10:58:10 10° NNW 11:01:15 16° NNE 11:04:19 10° ENE visible
12 Jul ? 04:35:27 10° S 04:39:41 34° ESE 04:44:02 10° NE visible
12 Jul ? 06:15:27 10° WSW 06:20:01 44° NW 06:24:43 10° NNE visible
12 Jul ? 07:58:43 10° WNW 08:01:41 16° NNW 08:04:41 10° NNE visible
12 Jul ? 09:42:09 10° NNW 09:44:08 12° N 09:46:09 10° NNE visible
13 Jul ? 04:59:16 10° SSW 05:03:58 71° SE 05:08:50 10° NE visible
13 Jul ? 06:40:47 10° W 06:44:52 27° NNW 06:49:03 10° NNE visible
13 Jul ? 08:24:44 10° NW 08:26:57 13° N 08:29:10 10° NNE visible
13 Jul ? 10:06:47 10° NNW 10:09:27 14° NNE 10:12:08 10° NE visible
